Location: Newark
(13.8117°N, 3.6025°W)
Time: 12:27:14
(UTC+00:00)

Vanguard 2 - Pass Details

Date: 29 August 2019
Orbit: 554 x 2937 km, 32.9° (Epoch: 22 October)

Event Time Altitude Azimuth Distance (km) Brightness Sun altitude
Rises 09:13:33 0° 259° (WSW) 2,877 10.1 45.3°
Reaches altitude 10° 09:16:08 10° 270° (W) 1,863 9.2 45.9°
Maximum altitude 09:19:42 30° 333° (NNW) 1,000 8.3 46.8°
Drops below altitude 10° 09:23:22 10° 36° (NE) 1,909 10.1 47.7°
Sets 09:26:03 0° 48° (NE) 2,964 11.0 48.3°
